Location: ????????
(37.8361°N, 23.0402°E)
Time: 15:54:47
(UTC+00:00)

USA 238 - Pass Details

Date: 08 August 2025
Orbit: 887 x 1324 km, 63.4° (Epoch: 24 November)

Event Time Altitude Azimuth Distance (km) Brightness Sun altitude
Exits shadow 22:38:15 42° 330° (NNW) 1,350 4.4 -36.3°
Drops below altitude 10° 22:43:45 10° 22° (NNE) 2,835 6.6 -36.3°
Sets 22:46:40 0° 29° (NNE) 3,860 7.4 -36.2°
